This demonstration page uses our WeatherBlox Daily Observations layout. Learn more.

Left ArrowRight Arrow

41.86663, -103.66717

Hourly Observations for July 18, 2020

Temp ( °F °C ) Dew Point ( °F °C ) Humidity (%) Winds ( mph kmh ) Pressure ( in mb ) Visibility ( mi km ) Precip ( " mm )
12:53 am 00:53 Clear 69 20.6 51 10.6 53 53 E 6 9 29.73 1007 10 16 N/A
1:53 am 01:53 Clear 65 18.3 54 12.2 68 68 N 7 11 29.74 1007 10 16 N/A
2:53 am 02:53 Clear 65 18.3 51 10.6 61 61 NNE 9 15 29.74 1007 10 16 N/A
3:53 am 03:53 Clear 65 18.3 48 8.9 54 54 NW 6 9 29.73 1007 10 16 N/A
4:53 am 04:53 Clear 63 17.2 49 9.4 60 60 undefined N/A 29.74 1007 10 16 N/A
5:53 am 05:53 Sunny 61 16.1 51 10.6 70 70 N N/A 29.75 1007 10 16 N/A
6:53 am 06:53 Sunny 68 20 50 10 53 53 N N/A 29.75 1007 10 16 N/A
7:53 am 07:53 Sunny 75 23.9 50 10 41 41 undefined N/A 29.78 1009 10 16 N/A
8:53 am 08:53 Sunny 80 26.7 51 10.6 37 37 WNW 9 15 29.80 1009 10 16 N/A
9:53 am 09:53 Sunny 86 30 52 11.1 31 31 WNW 9 15 29.80 1009 10 16 N/A
10:53 am 10:53 Sunny 89 31.7 50 10 26 26 WNW 15 24 29.82 1010 10 16 N/A
11:53 am 11:53 Sunny 93 33.9 50 10 23 23 NNW 15 24 29.83 1010 10 16 N/A
12:53 pm 12:53 Sunny 94 34.4 51 10.6 23 23 N 16 26 29.83 1010 10 16 N/A
1:53 pm 13:53 Sunny 94 34.4 50 10 22 22 N 14 22 29.83 1010 10 16 N/A
2:53 pm 14:53 Sunny 92 33.3 58 14.4 32 32 NE 14 22 29.83 1010 10 16 N/A
3:53 pm 15:53 Sunny 91 32.8 57 13.9 32 32 ENE 13 20 29.84 1010 10 16 N/A
4:53 pm 16:53 Sunny 91 32.8 55 12.8 30 30 ENE 12 19 29.85 1011 10 16 N/A
5:53 pm 17:53 Sunny 89 31.7 55 12.8 31 31 ENE 13 20 29.88 1012 10 16 N/A
6:53 pm 18:53 Sunny 86 30 57 13.9 37 37 E 12 19 29.88 1012 10 16 N/A
7:53 pm 19:53 Mostly Cloudy 83 28.3 57 13.9 41 41 ESE 9 15 29.91 1013 10 16 N/A
8:53 pm 20:53 Clear 75 23.9 59 15 58 58 VRB 3 6 29.89 1012 10 16 N/A
9:53 pm 21:53 Clear 73 22.8 56 13.3 55 55 E 6 9 29.89 1012 10 16 N/A
10:53 pm 22:53 Clear 69 20.6 57 13.9 66 66 ESE 5 7 29.91 1013 10 16 N/A
11:53 pm 23:53 Clear 68 20 57 13.9 68 68 ESE 7 11 29.93 1014 10 16 N/A

Powered by AerisWeather